User: anonymous   Login
Location: Unspecified
(0.0000°N, 0.0000°E)
Time: 01:42:36
(UTC+00:00)
Language:

Prospero - Orbit

View from above orbital plane
View from above orbital plane
View from above satellite
View from above satellite

Ground track
Ground track

The orbit data is extracted from the following two-line orbital elements,

1  5580U 71093A   18114.90600297 +.00000281 +00000-0 +57964-4 0  9992
2  5580 082.0437 359.8527 0530657 048.7553 315.8089 13.94324902333304
Epoch (UTC): 24 April 2018 21:44:38
Eccentricity: 0.0530657
inclination: 82.0437°
perigee height: 526 km
apogee height: 1300 km
right ascension of ascending node: 359.8527°
argument of perigee: 48.7553°
revolutions per day: 13.94324902
mean anomaly at epoch: 315.8089°
orbit number at epoch: 33330

The dashed part of the orbit path shows where the satellite is in the earth's shadow,  

DLR